Regional Weather Roundup
Issued by NWS

Home | Current Version | Previous Version | Graphics & Text | Print | Product List | Glossary Off
Versions: 1 2 3 4 5 6 7 8 9 10 11 12 13 14 15 16 17 18 19 20 21 22 23 24 25 26 27 28 29 30 31 32 33 34 35 36 37 38 39 40 41 42 43 44 45 46 47 48 49 50

000
ASUS43 KFSD 240310
RWRSD

WEATHER ROUNDUP FOR SOUTH DAKOTA
NATIONAL WEATHER SERVICE SIOUX FALLS SD
1000 PM CDT TUE AUG 23 2016

NOTE: "FAIR" INDICATES FEW OR NO CLOUDS BELOW 12,000 FEET WITH NO
SIGNIFICANT WEATHER AND/OR OBSTRUCTIONS TO VISIBILITY.


SDZ001>005-009-010-012>017-240400-
NORTHWEST AND NORTH CENTRAL SOUTH DAKOTA

CITY           SKY/WX    TMP DP  RH WIND       PRES   REMARKS
BUFFALO          N/A     61  36  39 NW8       29.96R
FAITH            N/A     63  37  38 NW6       29.99R
MOBRIDGE       CLOUDY    68  43  40 N6        29.89R
$$

SDZ012>016-024>037-041>051-057-063-072>074-240400-
SOUTHWEST AND SOUTH CENTRAL SOUTH DAKOTA

CITY           SKY/WX    TMP DP  RH WIND       PRES   REMARKS
RAPID CTY ARPT CLOUDY    62  34  35 N9        30.01R
PIERRE         PTCLDY    69  41  36 N14       29.89R
CUSTER         CLOUDY    59  31  34 CALM      30.14R
ELLSWORTH AFB  CLEAR     68  34  28 N15       30.00R
PHILIP         PTCLDY    60  42  51 N8        29.96R
PINE RIDGE     MOCLDY    59  44  57 CALM      30.02R
WINNER         FAIR      68  48  48 NW6       29.91R
$$

SDZ004>011-016>023-039-040-240400-
NORTHEAST SOUTH DAKOTA

CITY           SKY/WX    TMP DP  RH WIND       PRES   REMARKS
ABERDEEN       PTCLDY    69  62  78 N7        29.82R
WATERTOWN      CLOUDY    71  67  87 S6        29.81R
BROOKINGS      CLOUDY    70  67  90 SE9       29.82R
SISSETON         N/A     73  68  84 S7        29.77R
$$

SDZ017-020-022-023-036>040-048>070-240400-
SOUTHEAST SOUTH DAKOTA

CITY           SKY/WX    TMP DP  RH WIND       PRES   REMARKS
SIOUX FALLS    MOCLDY    72  70  93 E5        29.81R
HURON          CLEAR     75  62  64 N14       29.80R
CHAMBERLAIN    CLEAR     76  50  40 N12G17    29.87R
MITCHELL       CLEAR     73  70  90 SW6       29.79R
YANKTON        PTCLDY    73  72  94 E7        29.78R
$$

ABBREVIATIONS USED IN REMARKS
   TC - TEMPERATURE IN CELSIUS
  WCI - WIND CHILL INDEX
   HX - HEAT INDEX
  VSB - VISIBILITY





USA.gov is the U.S. government's official web portal to all federal, state and local government web resources and services.